Location: Chemnitz
(49.5500°N, 11.5830°E)
Time: 10:09:47
(UTC+01:00)

Tiangong 2 - Visible Passes

Search period start: 22 November 2017 00:00
Search period end: 02 December 2017 00:00
Orbit: 386 x 392 km, 42.8° (Epoch: 21 November)

Date Brightness Start Highest point End Pass type
(mag) Time Alt. Az. Time Alt. Az. Time Alt. Az.
27 Nov 4.1 06:50:47 10° SSW 06:52:32 14° SSE 06:54:16 10° SE visible
29 Nov 3.7 06:30:21 10° SSW 06:32:38 18° SSE 06:34:56 10° ESE visible
30 Nov 3.8 05:33:28 12° S 05:34:38 14° SSE 05:36:27 10° SE visible
30 Nov 3.2 07:08:11 10° SW 07:10:50 24° S 07:13:29 10° ESE visible
01 Dec 3.2 06:10:32 12° SW 06:12:45 22° S 06:15:18 10° ESE visible
